DELTA 1 DEB

Satellite information

Favourite Embed

Satellite Type and Status

DEBRISIN ORBIT

Key statistics

Satellite DELTA 1 DEB at a glance.

Uptime

19281

Days in orbit

Revolutions

≈ 14.2

Per day

Orbit

SSO

Sun Synchronous Orbit

Inclination

99.0

Latest

Satellite identification and parameters

Extended collection of information and parameters for DELTA 1 DEB.

Object identification

Identified? True

Debris? True

Object name: DELTA 1 DEB

International designator: 1972-058CB

Object number (NORAD): 7933

Object ID (CCSDS): 7933

Country: UNITED STATES OF AMERICA (US)

Current information (Y/N): Y

RCS size: SMALL

Orbital parameters

Period: 101.112 minutes

Inclination: 99.0042 deg

SMA: 7189.435 km

Apoapsis: 1017.086 km

Periapsis: 605.514 km

RAAN: 143.0264 deg

Eccentricy: 0.0286234

Argument of periapsis: 250.9449 deg

Mean anomaly: 106.0527 deg

Mean motion: 14.24165998 rev/day

Mean motion (dot): 0.00001468 rev/day2

B* drag term: 0.00043292 1/REarth

Two-line elements (TLE)

Creation date: May 7, 2025, 3:14 a.m.

Reference frame: TEME

Reference center: EARTH

Epoch: May 6, 2025, 3:17 p.m. UTC

TLE line 0: 0 DELTA 1 DEB

TLE line 1: 1 07933U 72058CB 25126.63686004 .00001468 00000-0 43292-3 0 9995

TLE line 2: 2 07933 99.0042 143.0264 0286234 250.9449 106.0527 14.24165998538192

Live tracking on map

Real-time ground track for satellite DELTA 1 DEB.

In-orbit conjunctions

A list of the most updated potential collisions computed for object DELTA 1 DEB.

Target Orbit TCA Probability of collision Miss distance Type
SL-12 R/B(AUX MOTOR) LEO 2025-04-21 16:12:08 0.0001133279 108.0 (m) ROCKET BODY
METEOR 2-19 LEO 2025-04-13 18:00:42 0.0001123766 382.0 (m) PAYLOAD

Associated space launch

Earth observation satellite

DELTA 1 DEB was lifted into orbit during the mission ‘Delta 0900 | Landsat 1’, on board a Delta 0900 space rocket.

The launch took place on July 23, 1972, 6:06 p.m. from Space Launch Complex 2W.

For more information about the launch, click the button.

Launch to space Delta 0900 | Landsat 1
Delta 0900 | Landsat 1

Agency: N/A

Status: Launch Successful

Launch date: July 23, 1972, 6:06 p.m. UTC

Rocket: Delta 0900

Launch pad: Space Launch Complex 2W

Location: Vandenberg SFB, CA, USA

...

Latest news about this satellite

There are no fresh news available about this satellite. Check back as we update our databases every day.


Newsletter sign-up

Weekly statistics, charts and insights to help you stay on top of the space industry.